Home   Weather   Oakville   Past weeks

Flag for Canada Past Weather in Oakville, Ontario, Canada — Yesterday and Last 2 Weeks

Now
58 °F

Cool.


Feels Like: 58 °F
Forecast: 58 / 67 °F
Wind: 5 mph from Northwest

Location: Burlington Piers

Current Time: Sep 26, 2016 at 6:29:09 AM

Latest Report: Sep 26, 2016 at 6:00 AM


Visibility: N/A

Pressure: 29.97 "Hg

Humidity: 71%

Dew Point: 49 °F

Location of OakvilleLocation

Past Weather in Oakville — Graph

°F

Oakville Temperature Yesterday

Maximum temperature yesterday: 62 °F (at 10:00 PM)
Minimum temperature yesterday: 53 °F (at 7:00 AM)
Average temperature yesterday: 58 °F

High & Low Weather Summary for the Past Weeks

 TemperatureHumidityPressure
High81 °F (Sep 20, 3:00 PM)94% (Sep 23, 12:00 PM)30.35 "Hg (Sep 23, 12:00 PM)
Low52 °F (Sep 24, 8:00 AM)25% (Sep 20, 9:00 PM)29.84 "Hg (Sep 17, 5:00 PM)
Average67 °F66%30.11 "Hg
* Reported Sep 11 5:00 AM — Sep 26 5:00 AM, Oakville, Weather by CustomWeather, © 2016

Note: Actual official high and low records may vary slightly from our data, if they occured in-between our weather recording intervals... More about our weather records

Advertising

Oakville Weather History for the Previous 24 Hours

Scroll right to see more
 ConditionsComfort  
Time TempWeatherWind HumidityBarometerVisibility
5:00 AM
Mon, Sep 26
59 °FCool.6 mph74%29.98 "HgN/A
4:00 AM61 °FCool.3 mph63%30.01 "HgN/A
3:00 AM60 °FCool.3 mph61%30.04 "HgN/A
2:00 AM60 °FRefreshingly cool.5 mph58%30.06 "HgN/A
1:00 AM61 °FRefreshingly cool.13 mph59%30.07 "HgN/A
12:00 AM61 °FCool.14 mph64%30.10 "HgN/A
11:00 PM
Sun, Sep 25
62 °FCool.16 mph65%30.12 "HgN/A
10:00 PM62 °FCool.12 mph63%30.14 "HgN/A
9:00 PM62 °FRefreshingly cool.9 mph49%30.16 "HgN/A
8:00 PM62 °FRefreshingly cool.8 mph43%30.16 "HgN/A
7:00 PM62 °FRefreshingly cool.9 mph42%30.16 "HgN/A
6:00 PM61 °FRefreshingly cool.8 mph48%30.17 "HgN/A
5:00 PM61 °FRefreshingly cool.10 mph50%30.16 "HgN/A
4:00 PM61 °FRefreshingly cool.9 mph58%30.19 "HgN/A
3:00 PM60 °FRefreshingly cool.8 mph60%30.21 "HgN/A
2:00 PM60 °FRefreshingly cool.9 mph60%30.22 "HgN/A
1:00 PM58 °FCool.7 mph62%30.25 "HgN/A
12:00 PM60 °FCool.1 mph61%30.25 "HgN/A
11:00 AM59 °FCool.1 mph63%30.26 "HgN/A
10:00 AM57 °FCool.3 mph67%30.26 "HgN/A
9:00 AM54 °FCool.8 mph70%30.27 "HgN/A
8:00 AM54 °FCool.8 mph71%30.26 "HgN/A
7:00 AM53 °FCool.6 mph79%30.24 "HgN/A
6:00 AM54 °FCool.12 mph71%30.23 "HgN/A
Weather by CustomWeather, © 2016

See weather overviewHow to use our weather pages